Temp
2 2 2 2 1 1 1 0 0 1 1 1 1 1 1 1 1 1 1 1 1 1
2 2 1 1 1 0 0 -0 -0 -0 -0 -0 0 0 0 1 0 0 -0 -0 -0 -0
2 1 1 1 0 -0 -0 -1 -1 -1 -1 -1 -1 -1 -0 -1 -1 -1 -1 -1 -1 -1
1 1 0 0 -0 -0 -1 -1 -1 -1 -1 -1 -1 -1 -1 -1 -1 -1 -2 -2 -2 -2
0 -0 -0 -1 -1 -1 -1 -2 -1 -1 -1 -1 -1 -1 -1 -1 -2 -2 -2 -2 -2 -3
-0 -0 -1 -1 -1 -2 -2 -2 -2 -2 -2 -2 -2 -2 -2 -2 -2 -3 -3 -3 -3 -3
-0 -1 -1 -1 -2 -2 -2 -2 -2 -3 -2 -3 -3 -3 -3 -3 -3 -3 -3 -3 -3 -4
-1 -1 -1 -2 -2 -2 -2 -2 -2 -3 -3 -3 -3 -3 -3 -4 -4 -4 -4 -4 -4 -4
-2 -2 -2 -2 -3 -3 -3 -3 -3 -4 -3 -3 -4 -4 -4 -4 -4 -4 -4 -4 -4 -4
-3 -3 -3 -3 -3 -3 -3 -4 -4 -4 -4 -4 -4 -4 -4 -4 -4 -4 -5 -5 -5 -5
-3 -3 -3 -3 -3 -3 -4 -4 -5 -5 -5 -5 -5 -5 -5 -5 -5 -5 -5 -5 -5 -5
-3 -3 -4 -4 -4 -4 -4 -5 -5 -5 -5 -5 -5 -5 -5 -6 -5 -6 -6 -6 -6 -6
-4 -3 -4 -4 -4 -4 -5 -5 -5 -6 -6 -6 -6 -6 -6 -6 -6 -6 -7 -6 -6 -6
-4 -4 -4 -4 -4 -5 -6 -6 -6 -6 -6 -6 -6 -6 -6 -7 -7 -7 -7 -7 -7 -7
Height
834 839 843 847 851 855 859 863 865 868 870 871 874 876 878 880 882 884 886 889 891 892
836 840 844 849 854 858 861 864 867 869 872 874 876 879 881 882 883 886 888 890 892 894
836 841 846 850 855 859 863 866 869 871 874 877 879 881 882 884 887 888 890 892 894 895
838 843 847 851 856 860 864 868 870 873 876 879 881 883 884 887 889 891 892 894 895 897
839 844 848 853 857 861 865 869 871 874 878 880 882 884 886 888 891 892 894 896 897 898
842 846 850 855 859 863 867 870 873 877 880 882 884 886 888 889 892 894 896 897 899 900
843 848 852 856 860 864 868 871 875 879 882 883 885 887 889 892 894 895 897 898 899 900
845 850 853 858 862 866 870 873 877 880 882 884 886 888 890 893 895 896 897 899 900 901
846 851 855 859 863 867 871 874 877 879 882 884 886 889 890 892 894 896 898 899 899 900
847 851 856 860 864 868 872 874 877 880 882 884 887 890 892 893 894 896 897 897 898 899
848 852 856 860 865 868 871 874 877 879 882 884 886 889 891 892 893 894 895 896 897 898
848 852 856 860 864 868 870 873 876 878 881 884 886 888 890 891 892 893 894 895 895 896
848 852 855 860 863 867 870 873 876 878 881 883 885 886 888 890 891 892 892 892 892 893
848 852 855 859 863 866 870 873 875 877 879 881 882 884 886 888 888 889 889 889 889 888
Wind_Speed
19 21 22 21 20 19 19 18 17 16 15 15 14 14 13 13 13 13 13 12 11 10
17 19 20 20 19 19 18 18 17 16 16 16 15 15 14 15 15 14 13 13 12 11
17 18 20 21 20 19 18 18 17 17 17 16 15 15 15 15 14 14 13 12 11 11
19 21 22 22 21 20 19 19 18 17 17 17 16 15 15 14 13 12 12 11 10 10
21 22 22 22 21 20 21 19 19 18 18 16 15 13 12 11 10 9 10 9 8 8
21 21 21 21 21 20 20 20 19 18 17 14 12 10 10 10 11 10 9 8 7 6
21 22 22 22 21 21 20 20 19 15 9 8 9 10 10 10 10 10 8 7 6 5
21 22 22 22 21 21 19 17 15 9 10 10 10 9 8 8 7 6 6 4 2 2
21 23 23 22 22 21 19 13 10 11 11 10 9 7 6 6 6 4 3 2 1 0
23 24 24 24 23 19 15 13 12 12 11 9 8 6 6 4 3 2 2 2 3 4
23 24 25 25 22 17 15 13 12 13 11 10 9 7 5 3 4 4 5 6 7 8
22 24 25 24 21 17 15 14 13 13 11 10 9 7 6 4 6 7 8 8 10 11
19 21 24 23 20 17 14 13 12 12 11 8 8 7 5 4 8 9 9 10 11 12
16 17 20 21 19 17 15 14 11 11 10 9 7 6 6 5 8 10 9 10 11 12
Wind_Direction
162 166 165 162 158 155 150 145 141 140 138 134 133 131 133 131 125 124 120 118 115 115
161 164 162 160 156 150 147 142 140 138 134 131 130 131 130 125 122 122 118 115 112 108
153 158 157 155 153 152 149 147 143 138 134 131 129 127 127 122 118 120 115 112 111 105
150 155 155 155 154 153 150 148 144 140 136 133 129 126 124 120 120 119 117 115 113 108
152 156 156 156 155 154 151 150 146 142 138 133 130 128 128 127 126 125 124 121 117 110
155 158 158 156 155 155 153 150 147 144 139 137 139 144 145 143 139 135 130 126 120 116
161 162 160 159 157 158 157 152 148 146 147 151 147 144 141 139 136 134 133 132 130 129
162 164 161 161 160 159 158 156 156 165 156 150 149 149 148 145 140 135 129 123 114 102
164 164 165 163 160 159 157 165 169 164 164 159 156 148 152 147 132 127 123 121 85 334
166 166 166 164 161 164 167 163 163 167 164 160 154 151 157 180 198 213 229 264 279 281
171 171 171 169 167 164 164 166 172 168 166 165 163 153 154 162 222 244 259 268 274 275
176 176 176 175 173 171 168 171 173 173 172 172 176 184 186 199 240 256 261 268 271 274
180 183 183 184 181 179 179 177 176 185 185 190 192 203 219 216 246 255 263 270 273 271
180 187 190 187 187 184 178 184 185 180 185 199 220 226 227 235 257 266 267 273 278 285